LiveATC.Net - Listen to live air traffic control over the Internet!


ICAO: KAMW  IATA: AMW   Airport: Ames Municipal Airport
City: Ames   State/Province: Iowa
Country: United States   Continent: North America
KAMW METAR Weather: KAMW 181853Z AUTO 23009G16KT 10SM FEW047 28/17 A2998 RMK AO2 SLP144 T02830172
KAMW ADS-B Flight Tracking (ADSBExchange)
KAMW Flight Activity (FlightAware)
KAMW Airport Info   (iFlightPlanner)
KAMW VFR Sectional Chart   (iFlightPlanner) 
KAMW IFR Low Altitude Chart   (iFlightPlanner) 
KAMW IFR High Altitude Chart   (iFlightPlanner) 

KAMW CTAF
Feed Status: UP   Listeners: 0
Listen in your browser - HTML5 player (in browser, HTML5)
Click here to listen with your own player (launches your MP3 player)
Archive Access: KAMW CTAF
FacilityFrequency
Ames CTAF122.700

NOTICE

Unauthorized use prohibited. See LiveATC.net Terms of Service


Airport/ARTCC Code
Frequency Search
(e.g., 124.400, 128.75)
Site-wide search
 


Browse Feeds
Top 50 Feeds
HF Oceanic Feeds
Coverage Map
Bad Weather Areas

LiveATC FAQ
Offer LiveATC feed
Contact LiveATC.net
Press Inquiries

LiveATC on iPhone
LiveATC on Android

LiveATC Mobile
(Mobile browser)

ATC Audio Archives
Interesting Recordings

LiveATC Forums


Home Page
About LiveATC.net


Terms of Use
Privacy Policy

AIRMETs/SIGMETs

FAA Airport Status
NAS Status
Arrival Demand


Server Software By:
Icecast.org
Liquidsoap